When you browse on this site, cookies collect data to enhance your experience and personalize the content and advertising you see.
Visit our Privacy Policy to learn more. By continuing to use the site, you agree to this use of cookies and data.
  • In Österreich
  • Länderverzeichnis
  • Für 7 Tage
  • Wassertemperatur
  • Wetterkarte
  • News
  • Widgets
  • user-avatar
    Anmelden

    Stündliche Wetter Jechegnadsor

    Heute, 5 Juni, Freitag

    Zeit Temperatur Niederschläge Wind Luftdruck Luftfeuchtigkeit
    00:00 +16°C° 0 mm 1 m/S 652 mmHg 50%
    01:00 +16°C° 0 mm 1 m/S 652 mmHg 52%
    02:00 +15°C° 0 mm 1 m/S 652 mmHg 53%
    03:00 +15°C° 0 mm 1 m/S 652 mmHg 55%
    04:00 +16°C° 0 mm 1 m/S 653 mmHg 55%
    05:00 +18°C° 0 mm 1 m/S 654 mmHg 55%
    06:00 +19°C° 0 mm 1 m/S 654 mmHg 55%
    07:00 +21°C° 0 mm 1 m/S 655 mmHg 49%
    08:00 +22°C° 0 mm 1 m/S 655 mmHg 42%
    09:00 +24°C° 0 mm 2 m/S 655 mmHg 36%
    10:00 +24°C° 0 mm 3 m/S 655 mmHg 35%
    11:00 +25°C° 0 mm 3 m/S 655 mmHg 33%
    12:00 +26°C° 0 mm 4 m/S 655 mmHg 32%
    13:00 +26°C° 0 mm 4 m/S 655 mmHg 32%
    14:00 +26°C° 0 mm 4 m/S 655 mmHg 33%
    15:00 +26°C° 0 mm 3 m/S 654 mmHg 33%
    16:00 +25°C° 0 mm 3 m/S 654 mmHg 36%
    17:00 +25°C° 0 mm 2 m/S 654 mmHg 38%
    18:00 +24°C° 0 mm 2 m/S 655 mmHg 41%
    19:00 +21°C° 0 mm 2 m/S 655 mmHg 44%
    20:00 +20°C° 0 mm 2 m/S 655 mmHg 48%
    21:00 +18°C° 0 mm 2 m/S 655 mmHg 51%
    22:00 +17°C° 0 mm 2 m/S 655 mmHg 52%
    23:00 +17°C° 0 mm 2 m/S 655 mmHg 53%

    Morgen, 6 Juni, Samstag

    Zeit Temperatur Niederschläge Wind Luftdruck Luftfeuchtigkeit
    00:00 +17°C° 0 mm 2 m/S 655 mmHg 53%
    01:00 +16°C° 0 mm 1 m/S 655 mmHg 55%
    02:00 +15°C° 0 mm 1 m/S 655 mmHg 57%
    03:00 +15°C° 0 mm 1 m/S 655 mmHg 59%
    04:00 +16°C° 0 mm 1 m/S 655 mmHg 59%
    05:00 +18°C° 0 mm 1 m/S 656 mmHg 59%
    06:00 +19°C° 0 mm 1 m/S 656 mmHg 59%
    07:00 +20°C° 0.1 mm 1 m/S 656 mmHg 53%
    08:00 +21°C° 0.1 mm 1 m/S 657 mmHg 48%
    09:00 +23°C° 0.1 mm 1 m/S 657 mmHg 42%
    10:00 +24°C° 0.2 mm 2 m/S 657 mmHg 40%
    11:00 +24°C° 0.2 mm 2 m/S 657 mmHg 38%
    12:00 +25°C° 0.2 mm 3 m/S 657 mmHg 35%
    13:00 +25°C° 0.4 mm 3 m/S 657 mmHg 35%
    14:00 +25°C° 0.4 mm 2 m/S 657 mmHg 35%
    15:00 +25°C° 0.4 mm 2 m/S 656 mmHg 35%
    16:00 +25°C° 0.2 mm 2 m/S 656 mmHg 39%
    17:00 +24°C° 0.2 mm 2 m/S 656 mmHg 42%
    18:00 +23°C° 0.2 mm 2 m/S 656 mmHg 45%
    19:00 +20°C° 0 mm 2 m/S 656 mmHg 51%
    20:00 +18°C° 0 mm 2 m/S 656 mmHg 57%
    21:00 +16°C° 0 mm 2 m/S 656 mmHg 63%
    22:00 +16°C° 0 mm 2 m/S 656 mmHg 64%
    23:00 +15°C° 0 mm 2 m/S 656 mmHg 66%

    übermorgen, 7 Juni, Sonntag

    Zeit Temperatur Niederschläge Wind Luftdruck Luftfeuchtigkeit
    00:00 +14°C° 0 mm 2 m/S 655 mmHg 67%
    01:00 +14°C° 0 mm 2 m/S 655 mmHg 68%
    02:00 +14°C° 0 mm 2 m/S 655 mmHg 70%
    03:00 +13°C° 0 mm 2 m/S 655 mmHg 71%
    04:00 +14°C° 0 mm 2 m/S 655 mmHg 68%
    05:00 +15°C° 0 mm 2 m/S 656 mmHg 65%
    06:00 +16°C° 0 mm 2 m/S 656 mmHg 62%
    07:00 +19°C° 0 mm 1 m/S 656 mmHg 56%
    08:00 +21°C° 0 mm 1 m/S 657 mmHg 51%
    09:00 +22°C° 0 mm 1 m/S 657 mmHg 45%
    10:00 +23°C° 0 mm 1 m/S 657 mmHg 43%
    11:00 +24°C° 0 mm 1 m/S 657 mmHg 41%
    12:00 +25°C° 0 mm 2 m/S 657 mmHg 39%
    13:00 +26°C° 0.1 mm 2 m/S 657 mmHg 39%
    14:00 +26°C° 0.1 mm 2 m/S 656 mmHg 39%
    15:00 +26°C° 0.1 mm 2 m/S 656 mmHg 40%
    16:00 +26°C° 0 mm 2 m/S 656 mmHg 43%
    17:00 +25°C° 0 mm 2 m/S 656 mmHg 45%
    18:00 +25°C° 0 mm 2 m/S 656 mmHg 48%
    19:00 +23°C° 0 mm 2 m/S 655 mmHg 55%
    20:00 +20°C° 0 mm 2 m/S 655 mmHg 62%
    21:00 +18°C° 0 mm 2 m/S 655 mmHg 68%
    22:00 +17°C° 0 mm 2 m/S 655 mmHg 68%
    23:00 +16°C° 0 mm 2 m/S 655 mmHg 68%

    8 Juni, Montag

    Zeit Temperatur Niederschläge Wind Luftdruck Luftfeuchtigkeit
    00:00 +16°C° 0 mm 2 m/S 654 mmHg 68%
    01:00 +15°C° 0 mm 2 m/S 654 mmHg 62%
    02:00 +15°C° 0 mm 2 m/S 654 mmHg 57%
    03:00 +14°C° 0 mm 2 m/S 654 mmHg 51%
    04:00 +15°C° 0 mm 2 m/S 654 mmHg 49%
    05:00 +16°C° 0 mm 1 m/S 654 mmHg 48%
    06:00 +18°C° 0 mm 1 m/S 654 mmHg 46%
    07:00 +20°C° 0 mm 1 m/S 655 mmHg 40%
    08:00 +22°C° 0 mm 1 m/S 655 mmHg 35%
    09:00 +24°C° 0 mm 1 m/S 656 mmHg 29%
    10:00 +25°C° 0 mm 1 m/S 656 mmHg 28%
    11:00 +26°C° 0 mm 1 m/S 656 mmHg 26%
    12:00 +27°C° 0 mm 1 m/S 656 mmHg 25%
    13:00 +28°C° 0 mm 1 m/S 656 mmHg 25%
    14:00 +28°C° 0 mm 1 m/S 655 mmHg 25%
    15:00 +28°C° 0 mm 2 m/S 655 mmHg 25%
    16:00 +28°C° 0 mm 2 m/S 655 mmHg 30%
    17:00 +27°C° 0 mm 2 m/S 654 mmHg 35%
    18:00 +26°C° 0 mm 2 m/S 654 mmHg 40%
    19:00 +24°C° 0 mm 2 m/S 654 mmHg 45%
    20:00 +20°C° 0 mm 2 m/S 654 mmHg 50%
    21:00 +18°C° 0 mm 2 m/S 653 mmHg 55%
    22:00 +17°C° 0 mm 2 m/S 653 mmHg 56%
    23:00 +17°C° 0 mm 2 m/S 653 mmHg 57%

    9 Juni, Dienstag

    Zeit Temperatur Niederschläge Wind Luftdruck Luftfeuchtigkeit
    00:00 +16°C° 0 mm 2 m/S 653 mmHg 58%
    01:00 +16°C° 0 mm 2 m/S 653 mmHg 57%
    02:00 +16°C° 0 mm 2 m/S 653 mmHg 56%
    03:00 +15°C° 0 mm 2 m/S 653 mmHg 55%
    04:00 +16°C° 0 mm 2 m/S 653 mmHg 55%
    05:00 +17°C° 0 mm 2 m/S 654 mmHg 54%
    06:00 +18°C° 0 mm 2 m/S 654 mmHg 54%
    07:00 +21°C° 0 mm 1 m/S 654 mmHg 47%
    08:00 +23°C° 0 mm 1 m/S 655 mmHg 40%
    09:00 +25°C° 0 mm 1 m/S 655 mmHg 33%
    10:00 +26°C° 0 mm 1 m/S 655 mmHg 29%
    11:00 +27°C° 0 mm 1 m/S 655 mmHg 26%
    12:00 +28°C° 0 mm 1 m/S 656 mmHg 22%
    13:00 +29°C° 0 mm 1 m/S 655 mmHg 22%
    14:00 +29°C° 0 mm 2 m/S 655 mmHg 22%
    15:00 +29°C° 0 mm 2 m/S 655 mmHg 22%
    16:00 +28°C° 0 mm 2 m/S 655 mmHg 28%
    17:00 +27°C° 0 mm 2 m/S 654 mmHg 34%
    18:00 +26°C° 0 mm 2 m/S 654 mmHg 40%
    19:00 +24°C° 0 mm 2 m/S 654 mmHg 46%
    20:00 +21°C° 0 mm 2 m/S 654 mmHg 52%
    21:00 +18°C° 0 mm 2 m/S 653 mmHg 58%
    22:00 +18°C° 0 mm 2 m/S 653 mmHg 58%
    23:00 +17°C° 0 mm 2 m/S 653 mmHg 58%

    10 Juni, Mittwoch

    Zeit Temperatur Niederschläge Wind Luftdruck Luftfeuchtigkeit
    00:00 +17°C° 0 mm 2 m/S 653 mmHg 57%
    01:00 +17°C° 0 mm 2 m/S 653 mmHg 56%
    02:00 +16°C° 0 mm 2 m/S 653 mmHg 55%
    03:00 +16°C° 0 mm 1 m/S 653 mmHg 54%
    04:00 +18°C° 0 mm 1 m/S 653 mmHg 53%
    05:00 +19°C° 0 mm 1 m/S 654 mmHg 52%
    06:00 +20°C° 0 mm 1 m/S 654 mmHg 51%
    07:00 +22°C° 0 mm 1 m/S 655 mmHg 46%
    08:00 +24°C° 0 mm 1 m/S 655 mmHg 40%
    09:00 +26°C° 0 mm 1 m/S 655 mmHg 35%
    10:00 +26°C° 0.1 mm 1 m/S 656 mmHg 34%
    11:00 +27°C° 0.1 mm 2 m/S 656 mmHg 32%
    12:00 +28°C° 0.1 mm 2 m/S 656 mmHg 31%
    13:00 +29°C° 0.1 mm 2 m/S 656 mmHg 30%
    14:00 +29°C° 0.1 mm 2 m/S 655 mmHg 30%
    15:00 +29°C° 0.1 mm 2 m/S 655 mmHg 30%
    16:00 +29°C° 0.1 mm 2 m/S 655 mmHg 34%
    17:00 +28°C° 0.1 mm 2 m/S 655 mmHg 38%
    18:00 +27°C° 0.1 mm 2 m/S 655 mmHg 43%
    19:00 +25°C° 0.2 mm 2 m/S 655 mmHg 51%
    20:00 +21°C° 0.2 mm 2 m/S 654 mmHg 59%
    21:00 +18°C° 0.2 mm 2 m/S 654 mmHg 67%
    22:00 +18°C° 0.2 mm 2 m/S 654 mmHg 67%
    23:00 +18°C° 0.2 mm 2 m/S 654 mmHg 67%
    Mehr zeigen